World > North America > United States > Washington

Elk Plain, Washington Regional Weather

Lat: 47.05N, Lon: 122.38W
Wx Zone: WAZ509Web Search

Helpful Tip: Abbreviated, 7 Day, 14 Day Forecasts. There is a weather forecast for every taste.

Feedback
Elk Plain Weather Map
UTC Time: 1/21/2021, 08:07
Your Time:

Elk Plain, WA Regional Weather

Expires:202101210800;;247917
ASUS46 KSEW 210720
RWRWA 

WASHINGTON REGIONAL WEATHER ROUNDUP
NATIONAL WEATHER SERVICE SEATTLE WA
1100 PM PST WED JAN 20 2021

NOTE:"FAIR" INDICATES FEW OR NO CLOUDS BELOW 12,000 FEET WITH NO 
SIGNIFICANT WEATHER AND/OR OBSTRUCTIONS TO VISIBILITY.


WAZ507-509-555>559-210800-
SEATTLE, TACOMA, EVERETT, AND VICINITY
  
CITY           SKY/WX    TMP DP  RH WIND       PRES   REMARKS
EVERETT        CLOUDY    41  36  82 E3        30.11F                  
BOEING FIELD   CLOUDY    43  38  82 NW3       30.12S                  
RENTON         CLOUDY    42  37  82 CALM      30.12F                  
SEATAC AIRPORT CLOUDY    43  38  82 N5        30.11S                  
JBLM-MCCHORD   NOT AVBL                                               
PUYALLUP       CLOUDY    41  41 100 CALM      30.10S FOG              
BREMERTON      CLOUDY    40  39  97 CALM      30.11S                  
JBLM-FT LEWIS  NOT AVBL                                               
TACOMA NARROWS CLOUDY    40  37  89 CALM      30.12R                  
$$
 

SKY/WX - Weather  TMP - Temperature  DP - Dew Point  RH - Relative Humidity
WIND - Wind Direction/Speed PRES - Barometric Pressure VSB - Visibility
WCI - Wind Chill Index E13G22 Wind - East Wind 13 mph/Gusts of 22 mph